ECMWFNIL_250_rhum_000.txt.gz
RH
29 30 32 34 36 37 38 37 34 28 23 21 32 60 79 77 60 39 33 46 64 79 89 96 102 102 103 102 90 85 89 88 81 79 86 90 84 81 86 87 87 91
30 32 34 35 36 38 38 38 35 29 32 36 34 39 51 62 67 65 58 59 74 90 96 100 105 103 106 105 91 83 91 96 90 81 82 88 91 95 97 94 93 97
33 35 36 36 37 39 39 37 31 25 31 31 21 30 63 86 92 86 75 72 85 100 102 102 103 103 103 95 83 86 94 97 92 84 81 83 88 96 99 97 97 99
36 38 38 38 38 38 34 29 26 21 21 25 34 65 97 101 87 72 58 62 83 99 102 99 95 96 99 93 87 94 99 98 95 91 88 87 87 93 98 98 99 101
39 38 38 38 36 35 26 21 31 36 44 63 75 83 89 84 78 74 67 72 88 97 99 96 93 94 99 99 98 101 102 100 99 98 98 97 96 96 98 100 100 101
41 40 39 36 32 27 13 7 21 38 61 83 75 63 78 92 93 93 94 94 94 97 101 99 97 99 100 101 101 101 102 101 101 101 101 100 100 100 100 101 101 101
44 40 36 32 24 15 4 -0 15 33 45 47 40 54 90 106 101 101 103 100 98 100 102 100 100 101 99 100 101 100 100 100 100 101 101 100 100 100 101 100 101 101
41 35 32 26 12 4 -0 -3 7 16 11 8 25 63 99 105 100 104 102 98 102 99 89 91 101 102 99 101 102 101 101 99 99 101 100 101 102 101 100 99 99 100
41 37 25 12 2 -1 5 11 23 35 36 42 58 76 100 111 103 102 102 99 104 100 86 89 101 101 100 101 100 100 102 100 100 101 100 100 101 100 99 98 98 100
49 40 18 12 11 9 17 25 44 79 97 97 90 79 90 111 109 103 104 102 107 107 97 97 102 101 101 100 98 99 102 101 100 100 100 101 101 99 98 99 100 100
45 33 20 25 28 34 44 26 23 77 107 86 78 85 89 98 106 106 105 105 107 105 101 99 101 103 104 101 100 100 99 100 100 102 102 101 101 100 99 99 100 100
35 25 16 25 36 46 48 17 12 73 96 60 70 110 106 90 96 101 100 104 104 99 98 99 98 101 102 100 100 101 101 101 97 97 99 99 101 103 101 99 100 100
30 23 12 16 25 20 15 18 41 81 80 52 64 86 79 79 98 103 98 100 103 99 99 100 97 98 98 98 99 97 95 93 88 89 95 99 102 103 100 99 100 100
26 24 17 12 7 8 29 57 73 75 59 48 53 50 53 84 106 103 99 100 100 100 99 100 98 95 96 99 100 96 91 90 92 96 99 102 106 105 101 101 101 101
23 21 21 17 5 12 40 49 41 36 26 25 35 37 61 104 114 102 100 102 103 105 104 104 104 99 98 100 99 97 94 94 97 100 101 102 102 97 95 99 101 100
25 21 19 19 9 8 19 14 5 7 2 3 15 20 42 81 97 96 95 91 93 93 83 81 88 94 99 103 104 106 105 100 99 101 102 100 95 91 93 99 100 99
23 23 18 17 13 10 15 12 6 5 2 3 10 12 22 39 51 59 61 54 53 49 34 30 38 45 53 61 72 85 94 99 102 103 101 99 98 100 101 101 101 100
21 21 18 16 14 12 13 13 10 9 9 9 10 13 18 18 20 27 29 27 28 26 19 16 15 13 15 17 22 31 42 55 68 82 97 104 104 103 101 101 101 100
21 19 18 16 15 14 13 13 13 12 12 13 13 12 13 13 13 14 14 16 19 19 18 17 15 14 14 12 13 15 17 23 32 48 72 91 100 105 103 100 101 101
20 19 17 15 14 14 12 13 14 14 13 12 11 11 11 13 13 13 15 17 18 18 19 19 19 17 15 14 16 18 20 22 25 29 36 48 69 92 103 101 100 101
19 18 16 15 15 14 13 14 14 13 12 11 12 13 15 16 16 17 19 20 20 20 19 19 20 20 18 20 22 24 26 28 28 27 25 24 35 64 91 102 101 100
18 16 15 15 14 14 14 15 15 14 13 14 16 18 19 19 20 20 21 22 21 20 20 20 20 19 19 21 25 30 33 34 32 30 29 27 31 51 80 100 103 100
17 16 15 14 14 14 14 16 16 16 17 19 20 22 22 22 21 23 26 26 23 22 22 21 19 18 18 20 23 28 30 32 35 36 36 37 44 57 69 81 92 96
16 15 15 14 14 15 16 17 18 18 20 22 23 24 25 23 22 26 30 28 24 23 22 21 20 20 21 21 22 23 25 27 31 36 41 44 52 60 58 57 68 80
16 15 15 15 15 17 19 19 19 21 22 23 25 26 25 23 23 25 27 24 21 19 17 17 19 21 23 25 24 23 25 29 32 36 42 46 51 58 59 57 60 65
15 15 15 15 17 19 20 19 19 22 24 25 26 25 25 25 24 24 25 23 20 18 19 20 26 33 36 33 30 29 29 30 33 36 39 44 50 58 63 64 63 63

ECMWFNIL_250_rhum_003.txt.gz
RH
29 30 31 32 32 31 29 30 29 28 26 17 12 13 21 50 84 94 74 54 69 91 89 87 91 93 99 100 98 102 101 93 85 87 95 99 99 98 96 95 93 92
31 32 33 34 35 32 29 29 28 26 23 15 12 10 13 38 60 55 41 38 61 88 96 95 90 91 98 99 98 101 101 98 97 98 101 101 101 97 95 99 100 97
33 34 36 37 38 34 28 27 26 24 19 14 12 8 14 34 48 59 76 84 88 95 97 95 92 90 92 93 96 100 100 101 101 100 100 100 100 99 100 100 93 86
33 35 37 40 40 35 27 25 26 24 21 14 9 11 24 41 56 81 104 103 97 101 101 101 100 93 90 93 96 98 101 101 100 100 101 100 100 100 99 92 79 77
33 36 39 41 40 35 31 29 28 29 26 18 18 27 41 58 65 70 91 102 94 93 103 104 97 91 90 94 95 97 100 100 100 101 101 99 99 99 94 85 79 86
35 39 41 42 39 37 38 35 28 29 26 23 36 45 55 83 78 39 53 92 86 80 98 101 94 93 92 91 93 95 97 97 96 97 97 96 96 98 98 93 93 97
44 46 43 43 42 39 39 34 26 25 24 25 37 43 51 72 55 15 40 88 87 83 96 97 98 100 93 91 93 94 96 95 92 94 98 98 97 99 100 100 101 101
55 60 53 45 44 42 37 31 25 21 21 22 23 28 39 44 35 40 74 92 88 96 95 83 90 97 94 97 98 95 97 97 95 98 100 100 101 103 102 100 101 103
52 66 65 49 41 44 40 31 26 21 19 21 20 21 32 47 62 82 96 94 99 106 77 50 69 93 98 100 98 99 101 100 100 102 101 100 99 92 80 72 74 80
46 57 67 56 41 42 43 33 26 24 20 21 23 19 30 67 98 100 93 93 96 81 40 20 50 87 100 102 102 101 99 97 97 94 87 82 72 60 47 39 39 42
47 50 58 55 40 37 41 34 26 24 22 22 25 20 22 46 66 62 57 55 42 24 10 11 34 57 70 78 79 76 77 82 83 73 62 53 45 40 34 27 24 22
46 46 48 46 37 33 34 31 26 24 23 23 23 20 17 18 20 24 30 22 5 2 8 14 20 24 28 32 33 34 41 49 50 46 42 39 37 36 33 28 25 22
45 50 49 43 37 34 31 29 27 25 23 23 21 18 17 14 11 15 21 15 6 7 12 15 17 16 16 17 18 19 21 22 24 27 31 35 35 34 32 30 28 25
48 54 49 41 37 34 31 29 27 25 24 23 21 20 18 15 13 13 14 14 12 12 14 15 15 15 16 19 21 21 21 20 21 23 26 29 29 27 26 24 23 24
52 54 46 42 39 34 29 28 27 26 25 22 20 21 18 15 14 13 13 13 13 13 14 13 13 16 20 22 24 23 22 21 22 23 25 27 26 25 25 24 23 22
52 50 45 43 39 33 29 28 27 25 24 22 20 18 17 15 14 13 13 13 13 13 13 14 17 21 24 25 25 25 24 24 27 31 33 34 33 30 29 27 26 25
48 46 47 44 39 34 30 28 27 25 23 21 19 17 16 15 14 14 13 13 13 13 14 17 19 22 25 26 26 25 25 26 31 37 40 40 38 33 30 28 27 27
47 47 46 41 36 33 31 28 26 25 23 20 18 17 15 14 14 14 14 14 14 14 16 18 20 22 24 25 25 25 25 26 31 35 39 41 39 34 31 30 28 28
46 45 41 36 32 30 28 26 24 22 21 19 18 16 15 15 14 14 14 14 14 15 17 19 22 24 25 25 25 25 25 26 28 31 35 38 35 32 31 31 32 32
42 39 35 30 28 26 25 24 23 21 20 19 18 17 15 15 14 14 15 15 15 16 18 21 23 25 27 27 26 26 26 27 28 31 35 36 33 29 29 33 39 44
36 33 30 28 26 25 24 23 22 21 20 18 17 15 14 15 15 15 15 15 16 17 20 24 27 28 29 28 27 27 26 27 30 35 37 34 30 27 30 39 50 57
32 29 27 25 25 24 22 21 21 20 18 17 15 13 12 14 14 15 16 17 17 19 22 26 29 31 31 29 28 27 26 28 34 37 34 29 26 29 37 48 60 65
29 27 25 24 23 22 21 20 19 18 17 15 13 11 10 12 14 16 17 18 18 21 24 27 30 32 31 29 29 27 26 28 31 29 27 26 29 36 48 61 69 67
28 26 24 23 21 20 20 19 17 17 16 15 13 11 10 11 13 16 18 20 21 23 25 27 29 31 30 30 30 29 27 27 27 26 29 33 40 53 68 77 72 59
25 24 23 22 20 19 18 17 18 18 16 14 12 11 9 10 12 16 20 22 22 23 25 27 29 29 30 30 31 31 31 30 30 31 34 41 55 73 84 82 70 58
24 23 21 20 19 18 17 16 18 20 18 13 10 11 12 15 18 21 23 22 23 24 26 26 27 28 29 31 32 33 33 34 35 37 42 55 72 85 88 83 79 77

ECMWFNIL_250_rhum_006.txt.gz
RH
23 24 24 25 27 28 31 32 31 30 29 29 29 28 24 27 31 26 21 20 18 21 32 52 58 36 38 70 80 76 78 72 63 65 72 79 81 80 80 78 77 77
24 24 26 27 29 31 32 34 34 30 29 30 29 29 27 26 28 28 27 28 28 29 32 41 47 41 47 69 75 70 62 49 51 60 66 75 83 84 86 87 84 83
25 26 28 31 33 35 37 37 36 33 32 32 30 27 25 23 24 23 23 24 25 24 25 33 45 61 74 73 67 67 51 27 31 44 45 56 73 80 84 84 81 82
28 29 31 35 38 42 45 47 46 43 39 35 31 26 23 22 21 21 19 19 20 18 17 27 49 77 90 78 68 64 41 13 12 21 21 29 42 51 55 54 59 77
33 34 35 35 39 45 50 53 57 59 53 44 36 30 26 24 21 21 21 19 20 20 18 20 32 52 57 49 43 34 15 5 8 13 14 17 19 23 26 27 40 67
33 35 36 35 38 46 49 48 53 62 63 54 42 35 32 28 23 21 21 21 21 21 20 18 17 19 17 18 23 17 5 6 12 14 15 16 16 18 20 22 30 45
36 36 35 34 37 44 47 45 45 51 56 52 42 36 34 29 24 23 22 22 23 21 20 20 18 15 13 14 16 11 7 11 15 16 17 18 19 20 21 23 26 28
42 41 36 34 37 43 46 45 44 47 52 53 44 35 30 26 23 24 24 22 22 21 20 21 20 16 14 15 14 12 14 17 17 17 20 21 22 23 23 24 25 25
38 37 35 35 39 47 50 45 42 44 50 54 48 35 26 25 25 24 25 24 23 21 20 21 20 16 14 15 15 15 16 17 17 18 19 19 19 20 22 23 24 25
35 34 34 36 38 45 48 45 42 41 48 55 50 36 26 25 27 26 25 25 24 22 19 17 16 15 14 14 14 16 16 16 16 16 15 16 16 16 18 21 23 23
34 33 34 36 38 41 43 44 43 41 48 53 45 34 28 26 27 27 27 26 25 23 20 19 18 14 13 14 14 14 15 14 14 14 14 15 15 16 18 21 23 23
34 33 34 36 37 38 39 42 43 42 46 47 39 31 28 28 29 30 28 25 23 21 21 26 25 17 13 13 13 13 13 13 14 14 15 15 15 17 20 21 22 23
33 33 34 36 36 37 39 40 42 42 42 41 35 29 28 30 29 29 28 26 24 29 41 46 35 18 14 14 13 13 13 13 14 14 15 16 16 19 21 23 24 24
33 33 34 36 36 37 38 38 40 40 38 36 32 29 29 29 28 30 28 23 23 35 53 57 36 16 14 14 13 13 14 14 15 16 16 16 18 21 23 25 27 28
32 33 36 37 36 37 37 38 40 39 36 34 31 30 29 27 29 28 22 27 41 43 38 33 22 13 14 14 13 14 14 14 15 16 17 19 20 22 25 27 30 31
32 32 35 36 35 36 37 38 39 38 35 33 31 32 30 27 28 23 23 52 77 57 26 17 15 13 14 12 12 14 14 15 17 18 19 20 20 23 26 28 31 32
32 32 33 34 33 35 36 37 37 36 35 34 32 32 30 27 26 21 26 48 54 32 16 17 16 13 14 13 12 13 13 16 19 20 20 20 22 24 26 29 32 32
32 32 33 34 34 34 35 36 35 33 33 32 30 30 28 25 24 21 22 26 22 16 17 18 15 14 14 12 12 12 14 18 21 21 21 22 23 24 26 28 29 30
32 33 33 34 34 35 35 35 34 33 32 32 31 30 27 24 23 22 20 19 18 18 17 15 17 17 12 12 14 16 18 21 21 20 20 22 23 24 25 26 26 27
32 32 32 33 35 35 35 34 34 32 33 33 33 31 28 25 23 22 20 20 18 17 16 17 19 17 14 15 16 17 19 20 19 20 21 22 23 24 24 24 25 25
33 34 33 33 34 34 35 35 35 34 34 34 33 30 28 25 23 21 20 19 18 17 17 17 17 18 18 17 16 17 19 19 19 21 21 22 24 25 25 25 25 25
35 35 34 33 33 35 37 38 39 40 39 37 34 30 27 24 21 20 19 18 18 18 17 16 18 20 18 15 15 18 19 19 20 21 22 25 26 26 26 26 25 26
36 35 34 33 33 36 39 41 43 44 43 40 36 30 26 23 21 20 20 20 19 19 17 18 20 20 17 15 16 17 18 20 21 22 25 27 29 29 28 27 25 24
35 34 33 34 37 39 41 43 45 44 42 39 34 29 25 22 21 21 21 21 20 18 18 19 20 17 15 15 16 17 19 21 22 24 27 28 29 29 27 25 25 25
33 33 34 36 39 40 42 44 44 42 40 36 31 27 23 20 20 22 22 20 19 19 19 20 18 16 15 16 17 18 19 21 23 25 27 28 28 28 27 26 25 25
32 33 35 36 37 39 43 44 43 41 37 33 28 24 21 21 24 26 23 20 20 20 20 20 18 17 17 17 18 19 20 22 25 27 29 30 28 27 27 26 24 25

ECMWFNIL_250_rhum_009.txt.gz
RH
23 28 30 29 28 27 25 26 29 31 35 42 48 51 55 55 51 43 35 30 30 29 26 23 22 22 23 22 22 21 20 20 19 16 14 14 13 10 12 15 14 14
25 29 29 28 27 27 27 29 30 32 39 47 50 51 53 57 57 52 44 36 32 29 25 23 22 22 22 23 22 21 20 20 19 17 15 14 14 13 15 15 13 13
28 30 29 28 26 25 28 31 30 31 38 45 47 46 45 48 51 53 50 42 34 28 24 23 23 24 24 23 23 21 19 18 18 16 14 14 14 14 14 14 13 13
29 29 29 26 24 25 28 31 31 31 34 38 42 43 42 42 45 51 54 49 39 30 26 25 24 24 24 25 24 23 21 19 17 16 15 14 14 14 14 13 13 13
29 28 28 26 25 26 29 32 34 32 31 34 38 43 43 39 39 47 53 52 44 36 29 25 24 25 25 25 24 22 22 23 22 18 14 14 14 14 14 13 13 14
29 28 26 25 25 26 28 32 32 31 32 33 36 39 40 38 38 43 48 49 43 36 30 26 26 25 25 26 25 25 28 33 31 22 16 14 15 14 13 14 14 13
28 28 26 25 26 26 27 30 31 32 32 32 33 35 36 37 38 39 42 43 40 35 30 29 27 25 27 27 23 23 31 37 32 22 16 15 14 14 14 14 14 14
29 27 26 24 24 26 27 29 31 31 31 32 33 33 32 33 35 37 38 37 36 34 32 30 28 28 27 25 32 44 46 36 25 18 15 15 14 14 14 14 14 14
30 27 26 25 25 26 28 29 30 30 30 30 30 31 32 33 33 34 34 33 33 32 31 31 29 29 26 26 50 72 58 30 19 17 16 15 14 14 14 14 14 14
33 30 27 25 25 26 27 28 29 29 28 28 29 31 33 33 33 34 33 33 31 28 29 30 28 29 27 25 36 49 38 20 17 19 17 16 15 14 14 14 14 15
37 39 34 28 26 26 27 28 28 27 27 27 28 32 33 33 33 34 34 32 30 29 29 28 27 27 27 25 27 32 32 25 19 18 18 17 16 14 14 15 15 17
35 42 41 33 27 26 26 27 26 27 27 27 29 32 32 32 32 34 36 34 32 31 29 26 27 27 26 27 28 30 34 29 19 18 19 18 17 16 16 17 18 19
31 36 40 34 27 26 26 26 26 26 27 28 29 30 30 32 35 35 35 34 32 31 29 28 29 28 26 27 24 29 42 38 22 18 20 20 20 19 17 18 18 18
28 31 36 33 28 26 26 27 27 27 27 28 28 29 31 32 33 34 35 35 34 31 29 29 29 27 27 26 21 27 40 36 22 19 23 23 23 22 19 17 17 18
28 29 30 31 31 31 29 29 30 30 30 31 29 29 31 30 32 35 34 34 35 34 31 31 31 29 27 25 22 22 26 26 24 24 23 24 25 22 18 16 16 18
30 30 31 31 33 33 31 33 38 39 37 37 35 32 31 32 32 32 32 34 36 34 32 33 34 31 27 26 23 23 26 25 24 22 20 23 24 19 16 17 17 18
31 32 32 32 32 32 29 31 37 39 40 42 41 36 33 33 34 34 34 31 29 33 44 50 46 34 26 25 23 31 48 52 43 35 26 20 20 18 18 18 18 18
32 37 36 33 32 30 29 29 31 32 35 39 38 36 33 33 36 36 31 31 45 68 80 74 54 31 22 27 34 55 82 86 78 69 45 21 17 19 18 18 18 19
35 47 47 36 31 30 29 30 31 32 36 36 34 34 33 35 37 34 35 55 83 91 76 57 40 26 24 26 28 57 96 103 96 87 53 20 16 18 16 19 19 19
34 46 46 35 30 31 31 32 32 35 41 40 36 34 34 35 37 35 40 58 67 57 44 39 34 26 25 22 17 43 85 96 84 69 40 17 18 19 17 20 21 22
36 38 36 32 32 32 32 33 34 36 40 39 35 35 35 35 37 38 40 43 42 40 40 39 33 25 23 23 19 29 51 58 48 37 25 18 19 19 19 22 23 25
36 34 33 32 33 33 34 34 35 35 37 36 34 36 37 37 38 39 40 40 41 41 38 32 29 27 23 22 21 21 31 40 35 24 20 20 20 20 22 24 25 27
34 34 34 34 34 36 36 35 36 37 36 35 36 37 37 39 41 42 41 41 40 36 33 31 29 26 22 22 23 21 25 32 28 21 20 21 21 22 25 25 27 30
36 35 35 35 37 40 40 39 40 40 37 36 36 36 37 40 44 45 43 41 39 34 30 29 27 25 24 24 26 27 27 27 26 24 23 22 22 25 27 28 31 34
35 35 35 35 37 39 39 38 41 41 38 36 36 37 40 43 45 45 43 39 36 33 30 27 26 26 26 28 31 32 31 30 29 25 23 24 26 28 29 32 36 39
35 35 35 35 36 37 37 37 39 40 39 37 38 40 44 46 44 42 42 39 34 31 30 28 26 26 29 34 36 33 30 31 30 26 25 27 28 30 35 38 41 46

ECMWFNIL_250_rhum_015.txt.gz
RH
22 21 20 19 20 20 22 26 31 32 29 27 28 28 27 28 28 28 29 28 29 30 29 29 29 29 28 27 28 28 28 27 26 26 26 25 25 25 28 30 26 22
23 21 20 20 20 20 22 24 29 31 29 27 28 27 26 27 27 27 28 28 29 29 31 31 29 28 28 28 29 29 29 28 27 27 30 34 32 33 41 41 31 24
23 22 20 19 20 20 22 23 26 29 28 26 26 26 27 27 28 30 30 29 29 29 30 31 30 31 32 33 34 33 30 29 28 28 42 60 55 43 51 53 40 30
25 21 22 22 21 22 22 22 24 27 27 26 27 28 30 31 33 34 33 32 31 30 30 31 33 36 37 39 39 36 31 29 30 30 42 68 74 63 65 63 47 34
45 26 27 30 28 25 24 23 23 26 26 26 28 30 31 32 33 32 32 32 31 30 31 31 33 34 34 35 35 34 33 31 31 31 33 51 71 75 69 55 39 32
74 46 37 40 37 31 29 27 24 26 29 30 31 37 41 39 34 31 29 30 29 29 32 31 31 30 30 32 33 35 37 35 34 34 32 35 46 51 47 38 32 31
87 67 53 50 43 35 36 38 33 29 34 41 45 55 61 50 36 30 27 26 28 29 31 31 31 31 31 32 34 35 37 38 37 36 36 36 36 35 34 34 33 33
75 67 62 55 42 38 52 66 62 51 52 59 66 73 71 48 30 27 26 26 28 30 33 36 35 33 33 33 34 35 35 36 37 37 38 38 37 37 36 35 36 34
49 50 53 47 36 40 63 85 89 81 75 74 76 83 73 43 25 26 26 26 29 31 37 44 44 39 35 34 34 35 35 35 36 38 38 37 38 39 37 37 39 39
31 36 40 36 30 36 54 75 88 91 88 83 82 84 67 36 23 26 26 27 28 29 34 42 45 41 38 38 35 34 35 36 37 39 40 43 42 39 43 52 54 51
24 28 29 27 24 27 36 47 58 64 68 70 71 65 46 27 24 26 26 27 28 28 31 36 38 38 38 38 35 35 36 36 38 43 46 47 45 50 67 78 74 69
21 22 23 22 22 24 27 29 32 34 36 39 40 35 28 24 25 27 28 28 28 29 32 34 36 37 37 37 36 36 37 38 40 44 48 49 53 70 87 90 88 91
20 20 21 22 22 23 24 25 26 26 26 25 25 24 24 24 26 28 29 29 28 29 31 34 36 36 37 38 39 38 38 40 40 43 50 52 56 71 86 93 98 102
20 21 21 22 23 24 24 25 25 25 24 23 23 23 23 23 26 28 29 28 29 30 31 32 34 35 37 38 39 39 40 42 43 47 54 58 65 80 93 100 101 98
21 21 22 22 22 23 23 24 24 24 23 22 23 23 23 24 26 27 28 29 30 31 32 33 34 35 36 38 40 42 43 46 51 55 60 71 87 98 99 98 98 99
23 23 23 22 23 22 22 23 23 23 22 22 22 23 24 26 27 28 29 30 31 32 34 36 37 37 38 39 41 43 47 55 61 65 73 88 100 102 99 99 100 102
26 26 26 26 25 24 23 23 23 22 22 22 23 25 26 27 30 30 30 30 32 33 36 38 41 41 41 42 45 49 55 64 72 77 87 98 102 101 102 104 102 101
30 29 29 28 28 27 25 25 24 23 22 23 25 26 27 29 31 31 30 31 33 34 37 39 41 42 44 47 53 58 66 76 86 92 95 100 103 101 101 103 102 100
31 30 30 29 28 28 27 26 25 23 23 25 27 28 29 30 31 30 30 32 34 36 38 39 41 44 48 56 61 67 79 90 98 103 101 99 102 101 99 102 103 101
30 30 30 29 29 28 27 26 25 24 25 26 27 28 29 30 30 31 33 34 35 38 40 42 44 47 57 70 77 83 94 97 98 105 105 101 101 98 96 101 103 100
30 30 30 30 29 29 28 26 24 25 27 28 28 30 31 33 35 35 35 37 37 40 42 43 49 59 74 89 94 97 102 97 94 101 102 100 101 97 93 100 104 99
31 31 30 30 30 29 28 27 25 25 27 28 28 30 35 40 40 35 36 38 39 41 44 48 61 80 94 99 100 102 101 93 91 95 96 98 103 100 97 101 102 99
34 34 33 33 32 31 29 26 25 24 25 28 29 31 35 39 36 34 36 38 39 43 46 54 76 98 103 99 99 101 97 91 91 92 94 100 103 102 102 100 97 97
36 36 36 36 35 33 31 27 26 26 25 27 29 31 33 34 33 33 35 37 41 44 49 64 88 104 102 97 98 99 95 96 98 94 93 98 101 101 101 98 95 95
37 36 36 36 36 35 32 29 27 27 26 27 29 31 32 30 30 32 34 39 42 43 54 78 98 103 101 99 101 100 97 99 102 99 96 99 102 101 100 98 96 91
39 37 36 36 36 35 34 32 28 27 28 29 29 30 30 29 30 33 36 41 41 43 63 91 104 104 102 102 104 104 100 97 100 103 103 103 103 102 100 98 96 88

ECMWFNIL_250_rhum_021.txt.gz
RH
23 25 25 26 26 26 27 29 29 26 24 22 21 21 22 23 25 27 30 30 36 51 61 56 43 30 25 28 30 30 32 35 36 35 34 32 34 35 36 41 46 55
28 28 29 29 29 29 29 30 31 30 29 26 24 24 25 26 27 28 30 31 34 44 57 66 66 54 36 26 27 29 28 30 31 31 31 31 33 35 38 43 51 62
31 30 29 30 30 29 29 31 32 32 32 30 28 31 31 30 30 32 34 36 40 46 54 62 68 69 55 33 24 28 28 28 29 29 30 31 33 36 39 43 55 72
37 34 30 30 34 38 38 36 35 36 38 36 31 34 38 37 34 37 48 55 57 60 64 65 65 68 60 36 23 26 27 28 28 28 30 31 33 36 39 45 61 81
50 48 43 42 46 52 53 47 44 45 46 45 42 42 45 45 39 40 57 72 75 74 72 66 59 54 44 29 23 25 26 27 28 29 30 31 33 36 39 50 69 89
64 66 65 63 63 65 64 60 60 63 64 68 72 67 57 49 41 39 51 62 63 60 55 45 37 33 28 23 23 24 24 26 27 30 31 31 33 37 42 55 76 94
74 77 78 76 73 71 68 66 68 73 80 90 95 84 64 48 39 33 35 38 36 34 32 27 25 24 23 23 23 23 23 25 28 30 32 33 35 39 45 57 76 94
70 74 76 77 76 72 64 59 58 61 67 80 89 78 55 39 33 28 25 25 25 25 24 24 24 23 23 23 23 23 23 24 27 30 32 34 37 41 45 54 71 90
60 63 65 69 72 73 71 64 58 55 53 57 63 58 40 27 25 24 23 22 21 21 23 23 23 23 23 23 22 22 22 23 27 30 32 35 39 42 45 51 67 89
58 60 62 65 68 71 76 78 72 64 58 53 49 43 33 24 21 20 21 21 20 21 22 22 22 23 22 23 22 22 22 23 27 30 32 36 40 42 44 49 65 88
56 56 56 61 72 75 71 75 80 73 65 61 53 43 34 25 21 19 19 19 19 20 21 21 22 22 22 22 23 23 23 24 27 30 32 37 41 43 44 47 62 88
53 51 47 48 64 80 74 67 71 72 67 63 55 44 35 27 21 18 17 18 19 20 21 21 21 22 23 23 23 24 25 25 27 29 33 38 42 43 43 45 58 84
46 46 46 40 49 73 81 70 64 65 62 58 50 40 32 26 21 18 18 19 20 21 21 22 23 24 24 24 25 25 26 25 26 29 32 37 40 42 44 43 51 76
52 51 51 47 47 61 72 68 62 58 53 49 42 34 29 24 20 19 19 19 20 21 22 23 24 25 25 25 26 26 27 26 26 29 31 34 38 41 43 42 44 63
64 60 56 53 52 54 55 54 52 49 44 39 34 29 26 23 21 20 19 20 21 22 23 24 25 26 26 26 25 26 26 26 27 30 32 33 37 40 41 41 41 48
53 52 50 48 47 45 44 42 41 39 36 32 28 25 23 22 21 21 21 21 22 23 24 26 26 27 26 25 25 25 25 26 28 31 32 33 36 39 40 40 41 42
37 37 38 38 38 37 35 35 33 32 30 27 25 23 23 22 22 22 23 23 24 25 26 27 27 26 26 25 24 24 25 27 29 31 34 35 36 39 40 40 42 43
30 29 29 29 30 29 28 28 27 27 26 25 24 24 24 25 25 25 25 25 26 27 27 27 27 25 25 25 25 25 26 27 30 33 35 36 37 39 41 41 41 43
31 31 30 29 29 28 27 28 27 28 28 26 27 28 28 29 28 27 27 27 27 27 27 27 27 26 26 27 27 26 26 28 32 35 35 36 37 38 40 43 42 42
36 35 33 32 32 32 32 32 31 31 30 30 30 30 31 31 30 29 29 28 28 28 28 29 29 28 29 31 31 30 29 31 33 35 36 36 36 38 41 42 42 42
41 40 38 36 35 34 35 35 34 34 33 33 33 33 33 33 32 33 33 32 31 31 31 32 30 31 32 34 36 35 33 33 34 35 37 36 38 41 42 42 43 44
46 45 43 42 40 39 39 38 38 39 39 39 39 38 39 37 36 36 35 35 36 35 35 35 33 34 35 36 37 37 36 36 35 35 36 37 40 40 41 44 44 43
40 42 43 45 45 44 44 44 44 43 43 44 44 44 44 43 41 40 38 38 38 38 38 39 36 36 37 37 38 38 39 39 37 38 39 39 42 42 42 45 43 41
25 27 29 32 35 37 40 41 42 43 43 44 45 44 45 44 44 43 42 41 41 40 41 40 39 40 39 38 39 39 40 41 40 41 41 41 44 44 41 42 43 43
17 18 18 19 20 22 24 26 28 29 31 31 32 33 34 34 35 37 38 39 41 42 43 42 42 43 41 41 42 40 40 40 38 38 40 42 43 41 38 38 39 41
20 19 18 18 18 17 17 18 19 19 18 18 18 19 20 20 21 22 23 26 29 31 34 36 37 38 38 38 37 37 35 32 31 32 33 33 32 32 31 29 29 37

ECMWFNIL_250_rhum_024.txt.gz
RH
17 18 19 21 22 23 23 24 23 22 21 21 20 21 22 23 24 26 28 30 33 35 40 46 50 56 61 66 69 56 33 24 25 26 26 27 28 31 33 35 39 49
20 19 20 22 24 24 25 26 26 25 24 22 21 20 23 27 29 30 30 31 33 37 46 55 60 64 65 58 52 41 27 23 24 24 25 26 28 30 32 37 41 45
24 22 22 24 26 27 29 30 29 28 26 24 22 21 23 28 32 35 36 36 35 37 50 63 66 61 52 38 29 25 22 22 23 22 23 24 27 30 32 38 43 44
26 24 26 28 30 31 32 32 33 35 36 35 32 30 29 30 33 38 44 46 42 37 40 48 48 39 31 24 21 22 22 22 21 21 22 23 26 30 31 36 43 44
29 28 30 32 34 36 36 39 48 59 66 69 68 61 50 41 40 48 58 58 51 42 34 29 28 24 22 22 22 22 22 22 22 21 21 22 25 29 31 35 41 44
31 32 36 41 47 52 54 59 70 82 90 93 96 93 81 68 62 65 70 64 51 42 34 25 21 21 21 21 22 22 21 22 22 22 22 23 24 28 31 34 38 42
36 42 50 58 65 70 73 77 83 89 92 95 99 98 88 78 73 72 71 62 46 34 29 24 21 20 20 20 21 21 21 21 22 23 24 24 24 27 30 32 35 38
46 55 63 69 74 79 80 80 80 80 82 85 91 95 87 72 62 60 60 53 39 28 24 22 21 19 19 19 20 21 21 22 23 24 25 24 24 26 28 31 33 35
54 60 66 69 70 72 71 69 69 69 71 73 77 86 91 83 71 62 56 50 41 33 26 22 20 19 18 19 20 21 21 22 23 24 25 26 24 25 27 30 32 33
54 59 62 64 63 62 61 62 64 65 67 71 75 79 83 84 82 76 66 58 50 39 30 23 20 18 18 19 20 21 22 22 23 25 26 26 25 25 27 30 31 33
52 56 59 61 61 60 60 60 63 63 60 63 72 82 83 77 75 76 71 64 55 42 31 26 22 20 18 19 20 21 22 22 24 26 27 27 26 25 26 29 31 32
50 53 56 59 59 59 59 59 60 61 57 52 55 71 87 85 73 70 69 64 55 43 33 27 23 21 19 19 20 20 21 23 24 26 28 28 27 27 28 28 29 32
49 51 53 54 55 54 54 56 57 58 56 52 47 53 77 90 82 71 66 60 52 43 34 28 24 21 20 19 20 21 22 24 25 27 28 29 28 29 29 28 29 32
45 47 48 48 48 49 50 52 53 53 50 50 49 49 62 78 77 68 61 54 47 39 32 28 24 22 21 21 21 21 23 25 27 28 29 29 30 32 31 31 30 31
46 46 46 46 46 45 46 46 47 50 51 54 58 57 57 62 61 55 50 45 40 35 30 26 23 22 22 21 22 23 24 27 28 30 30 30 32 34 34 34 33 32
68 68 66 64 63 59 58 59 59 62 64 64 63 58 53 51 47 43 40 36 33 30 28 25 23 22 22 22 23 25 26 28 29 30 32 33 33 34 35 37 36 35
82 80 77 74 73 72 70 69 67 64 60 55 51 47 44 41 38 36 33 31 29 27 26 26 25 25 25 26 27 28 29 30 30 32 34 34 35 35 36 37 37 37
59 58 56 54 53 53 52 50 47 44 41 38 36 34 33 33 31 31 29 28 28 28 28 29 30 30 31 31 31 31 30 31 31 34 35 36 37 37 37 37 37 38
36 35 35 35 34 34 33 32 31 31 30 30 30 30 30 31 31 31 31 31 31 31 32 33 34 34 33 33 33 33 32 33 34 35 36 37 39 38 38 39 39 38
32 31 31 31 31 31 31 30 30 31 31 31 32 32 33 33 33 34 34 34 34 34 35 35 36 36 36 37 37 37 37 37 37 38 38 38 39 40 40 41 41 40
37 36 35 34 34 34 34 35 35 35 35 36 37 38 38 38 37 37 37 36 37 37 37 38 38 39 40 42 43 43 43 43 42 43 42 41 41 42 42 42 43 43
43 43 42 41 41 41 41 42 42 42 42 43 44 45 45 45 44 43 43 43 43 42 42 43 43 43 44 45 46 45 45 45 44 43 42 42 42 42 42 43 43 42
31 33 35 35 36 37 38 39 40 41 41 41 41 41 41 42 42 42 42 41 41 42 42 41 41 41 40 39 39 38 37 36 35 33 32 32 32 33 34 34 35 36
19 20 20 22 22 23 24 25 25 25 26 26 26 25 26 26 26 26 26 26 27 27 27 27 28 26 25 25 24 23 22 21 20 19 19 19 19 20 20 21 22 24
20 20 19 20 19 19 19 18 18 18 18 18 18 18 18 18 18 17 17 17 16 16 16 17 17 17 17 17 15 14 14 13 13 13 13 14 14 13 14 15 15 16
23 22 21 21 21 21 21 20 20 20 20 20 21 21 20 20 20 20 19 19 18 18 18 18 18 19 19 18 17 16 14 13 14 14 14 14 14 13 14 16 16 18

ECMWFNIL_250_rhum_027.txt.gz
RH
17 18 18 18 19 20 20 21 21 20 20 20 20 21 21 21 22 24 25 27 29 31 33 33 39 53 65 64 52 34 22 21 22 21 21 21 21 22 23 26 30 33
18 17 17 18 18 19 20 21 22 22 22 22 21 21 21 21 23 26 29 31 33 36 38 38 38 45 51 46 34 25 22 22 22 21 22 21 22 23 23 26 28 31
27 25 21 19 18 18 20 21 23 25 26 26 24 22 21 21 23 27 31 34 37 40 46 51 46 40 36 31 25 23 22 21 21 21 21 22 23 23 24 25 27 29
36 35 32 26 21 19 20 22 24 27 30 32 33 33 34 33 31 31 33 35 38 46 59 66 59 45 36 29 24 22 20 20 20 20 21 22 23 24 25 25 26 29
35 36 38 35 29 24 22 25 27 29 36 49 59 66 68 65 58 55 56 54 54 60 69 70 61 47 35 28 25 21 20 19 19 20 21 21 23 24 25 26 27 28
32 34 39 39 33 29 27 28 31 39 55 75 86 91 92 88 81 77 74 68 63 60 60 60 56 44 33 27 24 21 19 18 18 20 21 21 22 23 25 26 26 27
34 35 38 41 36 31 31 34 42 59 78 90 93 94 95 92 86 82 80 76 72 65 59 56 54 48 40 34 29 24 20 18 17 19 20 20 21 22 24 26 26 27
39 37 37 41 40 34 34 42 56 72 84 90 91 92 90 86 81 79 80 82 83 81 77 72 67 60 52 44 37 30 23 19 18 18 19 20 20 22 23 26 27 27
40 36 35 39 41 38 39 49 62 73 82 87 89 86 82 80 77 75 77 79 81 82 81 81 80 74 64 54 45 36 27 22 20 19 19 19 20 21 23 25 27 27
30 29 31 38 41 41 43 51 62 72 80 84 82 79 76 74 72 70 70 73 78 82 81 77 76 74 69 61 51 41 33 27 23 20 20 20 20 22 22 25 27 28
18 22 30 39 42 43 46 53 63 70 75 76 73 72 70 67 66 64 60 59 62 70 76 78 76 71 67 62 54 45 37 30 25 22 21 21 22 23 23 25 27 28
16 23 33 40 42 44 49 55 62 66 68 68 67 67 65 62 62 60 57 53 49 49 55 64 72 73 68 62 54 46 39 32 27 23 22 22 23 24 25 27 28 29
22 28 36 40 42 45 51 56 60 62 63 62 62 62 60 57 56 55 54 52 47 45 47 51 60 66 63 56 48 42 37 32 27 24 23 23 24 26 28 30 30 30
23 28 34 38 41 45 48 52 56 58 58 58 58 56 54 53 52 51 51 48 46 51 56 57 58 59 55 48 42 37 33 29 27 25 24 25 27 30 31 32 32 30
26 31 36 39 42 44 46 49 51 53 54 54 53 51 48 47 46 46 47 49 53 61 65 63 57 52 48 42 36 33 29 27 26 26 27 29 30 31 32 33 33 33
37 40 41 42 42 43 43 45 44 45 46 45 45 45 45 46 48 51 56 61 68 70 65 56 49 42 38 34 31 29 27 26 27 28 30 31 31 32 33 35 37 38
37 39 38 38 39 39 40 41 41 43 45 48 52 56 60 65 67 70 72 71 67 59 49 41 36 32 30 29 28 27 27 27 28 29 31 31 33 34 35 37 40 42
32 33 35 37 39 41 42 44 48 55 61 68 74 75 75 74 71 66 60 53 45 38 33 31 29 29 29 29 29 29 30 31 31 33 34 35 36 37 38 40 42 43
34 36 39 42 45 47 50 53 58 64 69 72 71 65 58 52 46 41 36 32 30 28 29 30 31 32 32 33 35 36 37 38 39 40 41 41 42 42 43 43 43 42
41 42 43 44 45 46 47 47 48 48 48 47 44 39 35 33 31 30 29 29 29 30 32 33 35 37 39 41 43 43 44 44 44 43 43 42 41 39 38 37 35 33
37 37 37 37 37 37 36 35 35 34 33 32 32 31 31 31 31 31 32 33 34 35 37 39 41 43 44 44 43 42 40 38 36 34 32 29 28 26 25 24 22 21
35 35 36 36 36 36 36 36 36 36 35 35 36 37 38 38 39 39 40 41 41 42 42 41 40 38 35 33 31 28 25 23 21 20 19 19 20 19 18 17 18 18
42 42 42 42 43 43 44 44 43 43 43 43 43 43 43 43 42 41 39 37 35 33 31 28 26 23 21 19 18 16 15 15 15 16 17 19 20 19 19 19 20 20
40 40 39 39 39 39 39 39 38 37 36 35 33 32 31 28 26 24 22 21 19 18 17 17 17 17 17 17 17 16 16 15 17 18 19 22 23 23 23 22 22 23
25 24 24 23 22 22 22 21 21 20 19 19 18 17 17 16 16 15 15 15 15 15 16 16 18 19 20 20 21 21 20 19 20 21 22 24 25 26 26 26 26 25
18 17 17 16 16 16 16 16 16 16 16 15 16 16 16 17 17 16 17 18 18 18 19 19 20 20 21 22 23 23 24 23 23 23 24 25 26 27 27 26 26 25

ECMWFNIL_250_rhum_030.txt.gz
RH
18 19 18 19 19 20 20 20 20 20 20 21 21 22 22 22 22 22 24 26 28 30 33 36 39 46 51 51 45 36 26 23 21 20 21 21 22 23 23 24 25 24
19 19 19 20 19 20 21 21 21 22 22 23 23 24 24 24 24 24 25 28 32 37 41 44 50 63 76 75 61 44 32 24 21 20 20 20 21 22 22 23 24 24
19 19 18 18 19 19 19 20 21 21 22 24 25 27 28 28 28 28 29 31 35 40 45 52 62 77 86 84 69 49 33 25 22 20 19 18 20 21 21 22 22 23
19 19 18 18 18 19 18 18 19 20 21 23 25 29 31 32 36 40 42 41 41 46 55 64 69 72 72 71 61 45 33 28 26 24 22 20 19 19 20 20 20 21
21 20 21 22 23 23 22 20 20 20 21 23 26 29 34 42 51 60 64 62 61 64 69 70 68 64 61 59 54 46 41 38 36 33 28 25 22 20 20 19 20 20
27 30 33 36 37 37 34 29 25 22 21 24 26 30 42 56 68 78 84 83 80 76 72 69 69 71 71 67 63 60 58 56 50 43 37 32 27 23 21 20 20 20
42 47 50 51 50 48 45 40 34 28 25 25 27 33 50 69 82 91 93 90 84 77 72 70 71 74 75 74 72 70 68 66 62 56 49 41 33 28 25 22 21 21
51 54 55 54 49 45 44 44 41 35 30 28 29 38 59 80 90 93 90 84 79 75 73 71 71 73 74 74 73 71 70 69 67 65 59 51 41 33 28 25 23 22
51 51 51 46 39 36 37 41 43 39 33 31 33 45 67 85 91 88 80 74 74 74 72 70 68 66 64 62 61 62 64 68 71 71 67 60 49 39 33 30 26 24
47 46 46 39 33 32 34 38 41 40 37 33 36 48 66 81 89 87 79 74 72 70 68 65 61 57 54 51 49 48 52 58 64 68 66 59 49 40 35 31 27 25
44 43 42 40 36 36 37 37 37 39 40 36 38 50 63 74 85 87 82 75 69 65 62 60 57 55 53 51 48 47 51 57 60 61 60 54 46 39 34 31 27 24
45 42 40 39 39 40 40 35 32 35 39 38 40 51 62 71 79 81 76 69 64 62 60 57 54 52 51 50 47 47 54 63 65 60 55 49 43 37 32 28 25 24
45 39 36 36 36 35 33 27 25 30 37 39 41 50 61 69 73 71 67 64 62 61 58 55 52 49 47 46 46 49 60 68 67 58 49 41 35 31 28 26 26 26
40 36 33 29 25 22 18 16 18 27 36 40 41 48 56 64 68 66 63 61 59 59 57 52 48 45 46 49 53 61 68 68 59 48 38 31 28 27 27 28 29 30
33 29 23 18 15 13 12 13 17 27 37 41 43 46 50 54 58 58 57 57 57 55 51 47 46 52 59 65 68 69 64 54 43 34 30 28 28 29 31 33 35 38
23 17 14 13 12 12 13 15 20 27 33 38 43 46 47 50 53 54 55 54 51 48 48 53 63 72 75 73 65 55 46 37 31 29 29 30 31 32 36 39 42 44
14 12 13 13 12 13 14 16 19 23 28 36 41 44 46 48 49 49 48 46 47 54 64 75 81 78 68 56 44 36 31 29 29 30 31 32 35 38 41 43 44 44
12 13 13 13 13 15 17 19 22 26 33 39 42 43 43 43 42 43 44 50 59 69 78 79 71 58 45 35 30 29 29 30 32 34 36 38 41 43 43 43 41 37
13 13 14 15 19 23 26 30 33 36 40 41 40 40 40 41 42 45 50 57 63 66 64 57 46 36 30 29 30 32 34 36 39 41 42 43 42 40 37 32 28 24
14 16 18 21 27 32 34 36 37 38 38 37 37 38 40 42 44 47 51 52 50 46 40 35 32 31 33 36 38 40 42 43 43 41 39 35 30 26 22 19 18 18
18 20 22 25 28 29 30 30 31 33 33 34 36 38 40 42 43 42 41 38 34 33 33 34 37 39 42 43 43 42 41 37 33 29 25 21 19 17 17 17 18 19
19 20 22 23 24 26 28 30 31 33 35 36 38 38 38 37 36 34 34 34 35 39 41 44 44 44 43 40 36 32 27 22 20 18 17 18 19 18 19 20 21 22
26 28 31 33 35 36 37 37 37 37 36 36 35 35 34 34 36 38 40 43 44 44 43 40 37 33 30 25 22 19 17 16 16 17 19 20 20 21 22 24 25 25
37 38 38 38 38 37 36 35 35 34 34 36 37 39 41 42 44 44 42 40 36 32 29 25 22 20 19 18 18 17 18 18 18 19 21 21 20 21 23 25 27 27
36 35 36 35 35 35 36 37 39 40 42 43 43 43 41 38 35 32 28 25 22 19 18 18 18 19 19 20 21 21 22 23 22 23 23 21 22 22 23 24 25 25
41 42 43 44 43 44 44 43 42 41 39 37 34 30 27 24 21 19 18 17 17 18 19 20 21 22 22 23 23 23 24 23 23 23 20 19 19 19 20 21 20 21

ECMWFNIL_250_rhum_033.txt.gz
RH
18 19 19 19 20 20 20 21 20 20 20 21 21 21 21 21 21 22 23 24 26 27 29 33 41 46 52 62 65 55 40 30 24 22 22 21 20 19 19 19 19 19
19 19 19 20 20 20 20 20 19 20 20 20 21 21 21 22 22 22 23 24 27 30 32 37 44 47 51 64 72 66 54 41 31 28 31 31 29 27 25 24 22 21
19 19 19 19 20 20 19 20 20 20 21 22 22 22 22 23 22 23 24 25 29 33 37 41 42 45 53 63 67 63 56 47 41 43 47 48 45 42 38 35 31 27
18 18 19 19 19 20 19 20 21 21 22 22 22 23 23 24 25 26 25 25 28 32 38 44 47 52 59 63 62 60 57 55 55 57 58 58 57 56 52 48 44 39
18 18 19 19 19 19 20 20 20 20 20 20 21 22 23 25 27 29 28 27 27 30 39 51 59 64 67 68 68 68 67 66 67 65 63 62 60 60 59 56 53 48
18 18 19 19 19 18 19 19 19 19 18 19 20 20 22 24 26 29 31 32 37 44 52 59 67 73 74 74 75 73 72 69 65 61 56 54 53 52 53 53 52 49
18 19 19 18 19 18 19 19 18 19 19 20 20 19 21 23 25 30 32 39 55 69 73 70 69 73 74 74 72 69 65 60 54 50 46 44 45 46 49 51 51 49
19 20 19 19 20 19 20 22 24 28 29 28 25 23 22 22 24 29 34 48 69 77 77 75 72 73 72 70 67 62 57 53 50 47 45 42 42 46 51 53 51 48
20 20 20 20 20 21 25 31 36 40 40 39 37 33 29 26 26 28 34 54 73 74 69 69 71 72 70 66 63 59 54 51 49 47 44 43 44 49 54 54 49 42
20 20 21 21 24 30 37 43 46 46 44 43 42 40 36 32 29 29 34 51 71 75 70 70 72 71 66 62 58 55 52 50 47 46 45 47 51 56 57 52 43 33
20 20 21 23 31 44 50 52 51 46 40 37 36 37 37 35 33 31 33 47 66 76 76 74 71 67 62 58 54 52 52 51 48 47 48 53 57 58 53 44 34 28
20 20 20 23 39 56 58 56 54 44 35 33 33 33 33 33 35 34 33 42 58 70 75 74 69 64 60 58 55 55 54 52 49 47 50 56 57 50 41 34 28 26
24 21 20 23 41 59 58 53 51 44 36 34 35 37 35 31 32 35 36 39 48 59 68 72 70 65 62 60 59 58 56 52 48 49 55 58 50 38 31 28 26 27
34 27 20 24 41 55 53 48 45 42 39 38 38 39 36 28 26 32 37 40 43 50 59 67 68 66 63 63 61 58 54 48 47 54 61 55 40 28 26 27 29 32
37 30 22 25 41 52 49 45 43 40 38 37 36 33 27 19 18 25 35 40 41 45 53 60 63 63 63 62 59 54 49 47 52 60 58 44 30 26 29 32 36 40
35 28 22 27 42 50 48 45 44 40 36 34 30 23 16 13 13 20 31 37 39 42 47 52 55 56 57 56 52 48 48 52 57 55 44 31 28 32 36 39 43 44
33 24 23 31 43 48 47 46 43 39 35 30 23 16 12 11 13 19 27 32 35 38 41 44 47 48 48 47 45 46 50 53 49 39 31 30 34 39 42 44 43 39
33 27 29 36 42 45 46 44 41 36 31 24 18 13 12 12 15 19 23 26 31 36 39 41 42 42 41 41 43 47 47 42 35 31 33 38 43 44 43 39 33 26
39 36 38 40 42 44 44 41 36 30 24 18 14 12 12 13 16 18 22 27 33 38 40 39 38 39 40 42 43 42 37 33 33 37 42 44 43 39 33 26 20 18
47 45 44 43 43 43 41 36 29 22 16 13 13 13 14 16 21 25 31 35 38 39 37 37 38 39 40 40 37 34 33 36 41 44 43 39 32 25 20 16 17 18
46 46 44 42 40 38 33 26 20 14 13 13 13 14 18 25 31 35 37 36 35 35 35 37 38 38 36 34 33 35 39 43 43 38 31 25 20 17 16 17 19 20
32 32 32 31 28 24 21 17 14 12 12 13 15 19 25 30 31 31 31 31 33 35 37 36 35 34 35 37 40 42 42 38 31 25 20 17 17 17 19 20 20 19
20 20 20 19 17 16 15 13 12 12 14 16 18 22 25 25 26 29 31 35 36 36 36 35 36 38 41 43 42 38 32 25 19 17 16 17 17 17 17 17 16 16
14 13 13 13 13 13 12 13 14 15 17 18 19 22 25 28 33 36 36 36 35 36 38 40 42 44 42 38 33 26 21 17 15 16 16 15 14 13 14 14 14 13
13 13 13 13 13 13 13 15 16 16 18 20 24 29 34 36 37 36 36 37 39 41 44 44 41 37 32 26 22 18 17 16 15 15 13 12 12 12 12 13 13 12
14 13 13 13 13 14 15 16 18 21 25 30 34 36 37 37 38 39 41 43 44 43 41 36 31 26 21 19 17 16 16 15 13 13 12 12 13 12 12 12 12 12

ECMWFNIL_250_rhum_036.txt.gz
RH
17 17 17 17 18 18 18 20 20 20 21 22 22 22 22 22 22 22 22 21 22 23 24 27 28 31 37 39 38 41 51 55 48 39 38 44 50 53 53 53 52 51
16 16 16 17 17 18 18 19 19 19 19 20 21 21 21 21 21 21 21 20 21 22 24 26 27 32 37 37 34 37 47 53 50 46 48 54 56 56 54 52 50 50
16 16 16 16 17 18 18 18 18 19 19 19 20 20 20 20 20 21 21 20 20 20 21 23 27 33 36 36 38 42 47 51 51 53 57 58 54 49 46 44 44 47
17 16 17 17 18 17 17 18 18 18 19 19 19 20 20 20 20 20 21 21 21 21 20 22 27 30 33 39 45 49 53 56 57 59 59 54 48 43 40 38 40 45
18 17 18 18 18 17 17 18 18 18 19 19 19 20 20 20 20 20 21 21 21 21 21 22 25 29 36 44 49 54 61 65 63 60 56 50 45 42 40 40 41 43
18 17 18 19 18 18 18 18 18 18 19 19 20 20 20 21 21 21 22 23 24 24 24 25 27 34 43 50 54 59 65 68 65 59 54 49 45 42 42 42 41 43
18 18 18 19 19 18 18 18 18 18 19 20 20 21 21 21 21 22 22 23 25 26 27 29 34 45 54 57 59 63 66 67 64 59 54 49 45 44 43 40 40 43
18 19 19 19 19 18 18 18 18 19 19 19 19 20 20 19 20 20 21 22 24 26 27 31 44 59 63 61 60 63 66 66 61 57 52 48 48 47 42 37 39 45
19 19 19 19 19 18 18 18 18 19 18 18 18 18 18 19 19 19 20 21 23 25 27 31 44 59 63 61 62 67 68 64 58 53 50 50 52 49 43 38 41 47
19 19 19 18 18 18 18 18 18 18 18 18 18 18 20 22 24 25 26 26 26 27 27 30 40 55 64 67 68 70 67 61 55 50 51 55 55 50 45 40 42 49
19 19 19 19 18 18 18 18 18 18 18 18 20 23 27 30 31 31 30 30 31 31 30 31 36 50 64 72 73 71 65 56 51 52 56 58 55 51 46 42 45 49
20 20 20 19 19 18 18 18 18 18 18 20 25 30 33 33 31 30 30 31 32 32 33 32 34 41 53 64 69 69 64 56 53 57 59 58 55 50 44 43 47 45
20 20 20 20 19 19 19 18 18 18 19 23 29 34 35 33 30 29 31 34 34 32 31 30 32 36 41 50 59 62 61 60 60 59 57 54 51 45 42 44 43 36
21 21 21 20 20 20 19 19 19 19 21 26 32 36 37 35 32 32 34 37 38 35 29 26 27 30 34 39 45 51 55 57 57 54 51 48 44 42 43 42 37 32
26 21 21 21 21 21 20 20 20 20 21 28 35 38 40 40 37 36 37 37 37 35 27 21 19 22 29 33 37 42 45 46 46 45 44 42 40 41 41 36 33 35
33 24 22 22 22 21 21 21 21 20 21 28 39 43 42 42 40 38 38 36 34 30 23 15 13 16 24 31 33 34 36 38 40 40 40 40 40 40 36 33 36 41
40 30 22 21 22 22 21 21 20 20 19 25 40 48 45 43 42 39 38 36 31 25 18 12 12 16 21 25 27 30 35 38 39 38 39 40 39 36 34 37 42 41
40 34 24 20 21 20 21 24 25 25 22 22 34 47 48 45 44 42 39 35 28 20 14 12 13 16 19 23 29 35 39 38 37 38 39 38 35 35 38 42 40 31
36 35 28 22 23 28 34 38 40 38 30 22 28 43 50 48 45 43 39 34 25 16 13 12 13 17 23 30 36 38 37 35 36 38 37 35 35 39 42 39 29 21
30 35 35 34 38 46 48 44 43 42 34 24 24 37 48 48 45 42 38 31 21 14 12 13 16 24 32 36 36 34 34 36 37 36 34 35 40 42 37 27 20 18
23 30 37 44 48 49 45 36 34 37 33 24 23 33 43 45 43 41 36 26 16 13 13 15 22 30 32 30 30 33 37 38 36 35 37 41 42 37 27 19 17 16
17 22 29 39 43 41 35 27 25 32 33 25 24 31 38 43 43 39 30 20 13 12 14 18 25 28 26 28 33 37 38 35 35 39 42 41 35 26 19 17 15 13
15 16 20 26 29 28 24 18 21 31 35 31 32 38 42 43 41 32 22 15 12 13 16 20 24 25 28 34 38 37 35 35 40 43 40 33 25 19 17 15 12 12
16 14 15 17 17 17 16 16 24 36 42 43 45 46 44 39 32 23 16 12 12 15 17 20 24 29 36 39 36 34 36 40 43 40 31 24 19 16 15 12 11 12
16 14 15 15 14 16 17 21 31 42 48 50 48 42 35 29 22 16 13 12 14 16 19 23 30 36 38 36 33 36 42 43 39 31 23 19 16 14 12 11 11 12
16 15 16 16 16 18 20 25 32 38 40 39 34 30 25 20 16 13 12 13 16 19 25 32 37 38 35 34 38 44 45 39 30 23 18 16 14 12 11 11 12 12

ECMWFNIL_250_rhum_042.txt.gz
RH
18 17 16 19 24 25 26 26 26 28 28 28 29 28 27 26 24 25 24 24 25 25 24 24 24 25 27 28 32 38 39 36 35 39 47 56 60 56 53 53 53 53
19 18 18 19 21 22 23 23 25 28 31 33 33 30 28 27 26 26 25 24 24 25 24 23 23 23 24 26 29 34 38 37 35 35 43 53 60 60 56 55 54 55
21 19 19 19 20 21 22 21 23 26 31 34 34 32 29 27 28 27 26 26 25 24 23 22 22 21 22 23 25 28 31 31 31 32 38 48 58 62 60 57 55 56
22 21 19 20 21 22 22 22 22 24 29 33 34 31 28 28 29 28 27 27 25 24 23 21 20 20 21 21 21 22 23 22 24 28 35 45 54 60 61 59 56 56
20 21 20 20 21 23 22 21 22 23 26 30 31 29 28 28 28 28 27 26 24 23 22 20 21 20 20 21 22 22 22 22 24 28 37 45 50 56 60 59 56 55
19 19 19 19 21 22 22 21 21 22 24 26 27 27 27 26 27 27 26 25 24 23 21 21 21 21 22 24 25 25 26 28 30 33 39 43 47 53 58 59 57 55
24 19 18 18 20 21 21 20 21 22 23 23 23 23 24 24 24 24 24 25 24 22 22 22 22 23 24 25 25 26 27 30 33 37 40 43 48 53 58 60 58 56
32 26 20 17 18 20 21 21 22 22 21 21 20 21 22 22 22 22 23 24 22 22 23 23 23 23 23 23 24 25 26 29 32 36 41 46 51 55 59 60 57 54
34 34 29 22 18 19 21 21 21 21 21 20 20 20 20 21 21 22 23 22 22 22 23 22 23 22 21 22 24 26 28 30 31 33 37 41 45 48 51 51 48 47
30 36 36 31 23 19 21 22 20 20 20 19 20 20 20 21 21 22 23 22 21 23 22 22 22 20 21 24 27 30 31 31 31 31 32 34 36 39 41 40 40 40
25 34 38 38 31 23 20 21 21 19 19 19 20 21 21 22 22 22 22 22 22 23 21 21 20 20 26 31 33 34 33 33 33 29 26 25 27 31 35 35 36 35
20 30 36 37 36 30 21 20 21 20 19 20 20 21 22 22 22 22 22 22 23 22 21 20 20 24 32 35 35 36 37 38 35 26 19 15 16 22 28 30 30 32
16 21 27 31 36 37 28 20 21 20 20 21 21 22 23 22 22 22 22 22 23 22 21 19 20 28 35 34 34 37 39 40 35 23 15 12 13 17 22 24 27 33
28 15 18 24 32 41 36 25 21 20 20 21 21 22 22 21 21 21 21 22 22 21 20 19 22 31 35 32 32 36 39 39 34 23 14 12 13 15 17 21 28 37
59 29 15 18 27 40 43 34 25 20 20 20 20 21 21 20 20 21 21 22 21 21 20 19 22 32 37 34 34 37 39 40 36 25 17 14 13 14 16 20 31 38
86 55 25 16 22 32 41 41 33 23 20 20 20 20 20 20 20 20 20 20 21 21 20 19 22 30 39 40 40 42 41 41 39 30 23 18 13 13 16 22 33 36
99 78 44 22 19 24 33 42 42 32 23 19 20 20 20 20 19 19 20 20 20 20 20 20 21 27 39 44 44 45 43 44 44 36 29 23 16 13 16 22 30 31
101 87 60 35 23 20 24 33 42 42 33 23 21 20 20 20 19 19 19 19 20 20 20 21 21 26 36 43 47 49 47 48 47 41 34 27 18 14 14 19 26 28
103 93 74 53 36 26 21 24 34 44 43 34 25 21 20 21 20 19 20 19 20 21 20 21 22 24 28 33 40 47 50 54 52 44 39 31 22 16 13 16 23 25
104 105 95 79 61 40 25 22 25 33 41 44 38 28 21 21 21 21 20 20 20 20 21 22 22 23 24 24 27 33 41 51 55 49 42 35 28 19 13 15 19 22
91 106 108 100 80 54 33 26 24 24 29 39 45 42 33 24 21 21 21 21 21 20 21 22 22 23 23 22 26 30 33 41 51 52 45 39 34 24 15 14 17 21
69 89 103 105 92 67 44 31 26 24 25 29 38 47 48 40 31 25 22 21 21 21 22 21 23 24 22 26 38 42 37 36 44 50 47 42 39 28 17 14 15 21
55 66 82 97 100 89 72 56 41 29 24 25 30 37 45 50 46 38 31 26 22 22 22 22 24 24 23 33 47 48 39 37 43 48 47 45 41 30 18 14 15 21
53 55 62 78 95 101 98 91 76 54 34 26 28 31 34 40 45 46 44 39 32 28 24 23 24 23 25 40 50 44 38 41 45 48 48 47 42 31 19 14 15 21
54 53 52 61 80 96 103 103 97 80 54 33 26 29 33 35 38 41 44 45 44 40 34 29 25 22 31 46 49 40 39 46 51 51 51 50 43 30 19 14 15 22
55 54 51 50 58 73 88 99 103 95 76 54 37 30 29 31 33 36 37 39 43 45 42 37 28 25 38 52 49 37 36 48 58 59 56 53 44 29 19 15 15 23

ECMWFNIL_250_rhum_048.txt.gz
RH
22 26 26 23 20 19 23 27 28 26 24 22 20 20 20 21 21 22 23 24 24 24 24 24 24 24 24 25 27 29 30 31 32 34 37 40 43 47 53 59 63 64
17 20 21 20 18 18 19 23 26 25 24 24 23 22 21 21 21 22 24 24 24 24 24 24 24 23 24 24 25 26 26 25 26 29 33 38 42 47 50 55 61 64
16 16 17 18 18 18 20 24 27 27 25 25 24 24 23 21 21 23 25 26 25 25 24 24 25 24 23 23 23 24 23 24 26 29 34 40 44 47 50 55 60 58
18 16 15 17 19 18 20 24 28 27 25 25 25 24 23 22 22 24 27 27 26 25 26 25 25 25 24 22 22 22 24 26 28 30 33 37 40 43 47 49 49 44
19 19 17 16 18 19 19 22 25 27 26 25 25 25 23 23 24 26 28 29 27 26 27 26 26 26 24 22 22 22 25 27 27 27 29 32 34 36 37 37 35 32
22 20 20 19 18 18 18 19 22 26 28 27 26 25 24 24 25 27 30 30 27 27 27 27 27 26 25 23 22 24 26 25 24 24 26 29 30 32 32 30 27 22
25 23 21 21 20 19 18 19 19 23 27 28 27 25 24 24 25 27 30 31 29 27 28 28 28 27 25 23 23 24 24 23 22 23 26 30 31 33 33 27 20 14
20 24 23 21 21 21 20 20 19 20 24 25 26 25 23 23 24 26 28 30 30 28 28 29 29 28 26 23 22 23 23 22 21 23 27 32 34 35 35 28 19 13
18 19 23 22 21 21 21 22 21 20 22 24 25 25 24 23 23 24 25 28 30 29 29 30 29 28 26 23 22 22 22 21 21 24 29 34 36 37 38 31 21 14
31 20 19 22 23 22 21 21 21 21 21 22 24 24 24 24 23 23 23 25 27 29 29 29 29 28 26 24 23 22 22 21 20 25 32 35 37 39 40 36 27 20
52 37 24 20 22 23 23 21 20 21 21 21 22 23 23 24 24 24 23 23 25 27 29 28 27 27 26 24 23 22 23 21 20 26 33 35 37 40 40 38 35 29
58 59 43 28 21 20 24 25 22 21 20 20 21 21 22 23 23 24 23 23 24 25 27 26 25 26 26 24 24 23 23 21 21 27 33 35 36 39 39 39 39 37
46 66 63 47 33 21 20 25 27 25 22 20 20 19 21 22 22 23 24 25 26 25 25 25 24 25 25 25 24 23 23 22 20 25 32 35 35 36 37 38 40 41
28 50 63 62 53 37 23 21 26 30 28 25 23 21 20 20 20 21 23 24 26 25 24 24 24 25 26 25 24 23 23 22 21 23 29 35 36 35 35 37 41 42
17 29 46 62 69 63 46 29 22 25 30 31 30 27 25 23 21 20 22 23 24 24 24 24 24 25 26 25 24 23 23 23 21 21 25 32 37 37 36 38 42 44
15 17 28 50 72 83 79 61 39 26 24 29 33 34 32 30 27 24 22 21 22 23 23 23 23 25 26 26 25 23 23 23 22 21 21 25 33 37 40 43 45 46
16 16 19 35 60 82 94 93 76 52 33 24 27 33 36 35 33 31 27 23 22 22 22 21 22 25 26 27 26 24 23 23 23 23 21 21 25 30 37 43 45 46
17 16 16 24 43 65 88 102 100 86 64 41 26 24 29 34 35 34 32 30 25 22 22 21 21 25 27 27 27 25 24 23 23 23 22 21 22 23 27 33 38 41
17 17 15 18 28 45 71 95 103 101 92 74 50 31 24 26 30 33 35 36 32 26 23 22 21 25 27 27 27 26 26 24 23 23 23 22 21 21 22 24 28 30
19 18 16 16 19 29 54 83 99 102 102 98 84 63 42 30 26 26 31 37 40 35 29 24 22 25 26 26 26 27 27 26 25 23 23 22 22 22 22 22 23 24
20 19 17 16 16 19 37 66 88 98 101 102 100 92 79 64 49 37 30 30 36 41 39 32 24 23 25 27 27 28 29 28 27 24 23 22 22 22 22 22 22 23
21 20 18 17 16 16 25 46 72 88 95 98 101 102 99 94 83 68 50 35 29 35 43 42 35 28 24 24 26 28 28 28 27 26 25 24 23 23 22 22 22 23
22 21 20 18 17 16 18 28 47 69 83 89 93 98 102 102 97 90 80 59 36 28 38 46 45 41 35 28 26 25 26 26 26 26 25 25 24 24 24 23 23 23
22 21 21 19 17 17 16 18 26 43 64 76 80 86 95 101 101 98 99 88 58 32 31 41 48 51 50 43 36 31 27 25 24 24 25 24 24 24 24 24 24 23
22 22 21 20 19 17 16 16 17 23 39 58 68 73 81 94 102 100 101 102 82 48 30 31 41 51 56 54 50 45 39 34 30 27 25 23 23 24 24 24 24 24
24 23 22 20 19 18 16 16 16 16 22 36 50 60 68 81 96 101 101 102 97 78 54 38 36 43 50 54 52 50 48 48 46 42 37 33 30 28 28 27 26 26